Location: New Plymouth
(39.0670°S, 174.0830°E)
Time: 14:31:51
(UTC+12:00)

ISS - Pass Details

Date: 23 June 2019
Orbit: 409 x 418 km, 51.6° (Epoch: 23 July)

Event Time Altitude Azimuth Distance (km) Brightness Sun altitude
Rises 18:09:40 0° 334° (NNW) 2,363 0.8 -11.6°
Reaches altitude 10° 18:11:55 10° 345° (NNW) 1,508 -0.4 -12.0°
Maximum altitude 18:14:53 29° 47° (NE) 819 -2.5 -12.5°
Enters shadow 18:16:22 20° 89° (E) 1,037 -2.3 -12.8°
